Погода в Каменном

Россия / Ханты-Мансийский автономный округ - Югра     61°34′21″N   67°29′07″E
темп.,
°C
ветер,
м/с
пор.,
м/с
влажн.,
%
обл.,
%
осадки,
мм/ч
давл.,
гПа
погр.,
м
18 мая, вт
вт1823:00+13св5678100 1.0 1010299
02:00+11св5680100 0.0 1011475
05:00+9ссв5784100 0.2 1013496
08:00+9ссв6783100 0.1 1015569
11:00+10ссв5671100 0.1 1018760
14:00+12ссв6663100 0.0 10191272
17:00+11с576531 0.0 1021985
20:00+11св4653100 0.0 1021555
19 мая, ср
ср1923:00+9с33595 0.0 102341
02:00+6ссв36656 0.0 1024128
05:00+5ссв3663100 0.0 1025205
08:00+7с4646100 0.0 1026652
11:00+10с453689 0.0 10261215
14:00+13с353552 0.0 10251453
17:00+14ссз3436100 0.0 10241438
20:00+14вюв1041100 0.0 1023462
20 мая, чт
чт2023:00+12ююв4749100 0.0 1022200
02:00+10ююв71259100 0.3 1020450
05:00+10ю61068100 0.5 1016360
08:00+12юз467186 0.8 1014267
11:00+20ссз5752100 0.9 10131086
14:00+24с61044100 0.0 10131989
17:00+25с7114278 0.0 10141825
20:00+22ссв35525 0.0 1015129
21 мая, пт
пт2123:00+15ююв46787 0.0 1017132
02:00+14ю348566 0.0 101777
05:00+14ююз35855 0.0 1018107
08:00+21юз47589 0.0 1017358
11:00+27з57386 0.0 10161221
14:00+30з562789 0.0 10153047
17:00+29з762711 0.0 10142694
20:00+26зюз46372 0.0 1014118
22 мая, сб
сб2223:00+22юз344939 0.0 101441
02:00+19зюз335329 0.0 101430
05:00+18зюз3456100 0.0 101450
08:00+23юз2340100 0.0 1014244
11:00+28ююз56274 0.0 10131462
14:00+29ююз77225 0.0 10122863
17:00+29ююз78215 0.0 10112961
20:00+26ююз6113024 0.0 1009428